TG6YMD-19 Weather Reports


time (UTC)temp
F
wind
direction
speed
knots
gust
knots
rain 1hr
in
rain 24hr
in
rain mn
in
humidity
%
barometer
mb
20260507095730 72 210 0.9 0.9 0.00 0.00 0.00 91 1011.0
20260507094730 73 210 0.9 0.9 0.00 0.00 0.00 91 1011.0
20260507093729 73 210 0.9 0.9 0.00 0.00 0.00 91 1011.0
20260507092729 74 184 0.9 0.9 0.00 0.00 0.00 91 1011.0
20260507091728 74 184 0.9 0.9 0.00 0.00 0.00 91 1011.0
20260507090727 75 184 0.9 0.9 0.00 0.00 0.00 91 1011.0
20260507085727 76 184 0.9 0.9 0.00 0.00 0.00 91 1011.0
20260507084726 73 184 0.9 0.9 0.00 0.00 0.00 89 1011.0
20260507083726 73 184 0.9 0.9 0.00 0.00 0.00 89 1011.0
20260507082725 74 66 0.0 0.9 0.00 0.00 0.00 89 1012.0
20260507081725 75 66 0.0 0.9 0.00 0.00 0.00 89 1012.0
20260507080724 76 66 0.0 0.9 0.00 0.00 0.00 89 1012.0
20260507075724 77 66 0.0 0.9 0.00 0.00 0.00 89 1012.0
20260507074723 78 66 0.0 0.9 0.00 0.00 0.00 89 1012.0
20260507073723 79 66 0.0 0.9 0.00 0.00 0.00 89 1012.0
20260507072722 74 61 0.9 0.9 0.00 0.00 0.00 82 1012.0
20260507071722 75 61 0.9 0.9 0.00 0.00 0.00 82 1012.0
20260507070720 76 61 0.9 0.9 0.00 0.00 0.00 82 1012.0
20260507064718 77 61 0.9 0.9 0.00 0.00 0.00 82 1012.0
20260507063718 78 61 0.9 0.9 0.00 0.00 0.00 82 1012.0
20260507062717 79 46 1.7 2.6 0.00 0.00 0.00 82 1013.0
20260507061716 75 46 1.7 2.6 0.00 0.00 0.00 79 1013.0
20260507060716 76 46 1.7 2.6 0.00 0.00 0.00 79 1013.0
20260507055715 77 46 1.7 2.6 0.00 0.00 0.00 79 1013.0
20260507054714 78 46 1.7 2.6 0.00 0.00 0.00 79 1013.0
20260507053714 75 46 1.7 2.6 0.00 0.00 0.00 61 1013.0
20260507052713 76 46 2.6 3.5 0.00 0.00 0.00 61 1013.0
20260507051712 77 46 2.6 3.5 0.00 0.00 0.00 61 1013.0
20260507050711 78 46 2.6 3.5 0.00 0.00 0.00 61 1013.0
20260507045711 79 46 2.6 3.5 0.00 0.00 0.00 61 1013.0
20260507044710 80 46 2.6 3.5 0.00 0.00 0.00 61 1013.0
20260507043710 81 46 2.6 3.5 0.00 0.00 0.00 61 1013.0
20260507042709 82 44 2.6 4.3 0.00 0.00 0.00 61 1013.0
20260507041708 76 44 2.6 4.3 0.00 0.00 0.00 40 1013.0
20260507040707 77 44 2.6 4.3 0.00 0.00 0.00 40 1013.0
20260507035707 78 44 2.6 4.3 0.00 0.00 0.00 40 1013.0
20260507034706 79 44 2.6 4.3 0.00 0.00 0.00 40 1013.0
20260507033705 80 44 2.6 4.3 0.00 0.00 0.00 40 1013.0
20260507032705 81 40 2.6 4.3 0.00 0.00 0.00 40 1012.0
20260507031704 81 40 2.6 4.3 0.00 0.00 0.00 40 1012.0
20260507030704 82 40 2.6 4.3 0.00 0.00 0.00 40 1012.0
20260507025703 82 40 2.6 4.3 0.00 0.00 0.00 40 1012.0
20260507024702 83 40 2.6 4.3 0.00 0.00 0.00 40 1012.0
20260507023702 84 40 2.6 4.3 0.00 0.00 0.00 40 1012.0
20260507022701 85 42 3.5 5.2 0.00 0.00 0.00 40 1011.0
20260507021701 86 42 3.5 5.2 0.00 0.00 0.00 40 1011.0
20260507020700 86 42 3.5 5.2 0.00 0.00 0.00 40 1011.0
20260507015700 87 42 3.5 5.2 0.00 0.00 0.00 40 1011.0
20260507014659 87 42 3.5 5.2 0.00 0.00 0.00 40 1011.0
20260507013658 88 42 3.5 5.2 0.00 0.00 0.00 40 1011.0
20260507012658 89 49 3.5 6.1 0.00 0.00 0.00 40 1010.0
20260507011657 90 49 3.5 6.1 0.01 0.00 0.00 40 1010.0
20260507010657 91 49 3.5 6.1 0.00 0.00 0.00 40 1010.0
20260507005656 92 70 7.8 0.0 0.00 0.00 0.00 40 1010.0
20260507004656 92 70 7.8 0.0 0.00 0.00 0.00 40 1010.0
20260507003655 92 70 7.8 0.0 0.00 0.00 0.00 40 1010.0
20260507002654 92 70 7.8 0.0 0.00 0.00 0.00 40 1008.0
20260507001654 92 70 7.8 0.0 0.00 0.00 0.00 40 1008.0
20260507000653 92 70 7.8 0.0 0.00 0.00 0.00 40 1008.0
20260506235653 96 70 9.6 0.0 0.00 0.00 0.00 36 1008.0
20260506234652 96 70 9.6 0.0 0.00 0.00 0.00 36 1008.0
20260506233651 96 70 9.6 0.0 0.00 0.00 0.00 36 1008.0
20260506232651 96 70 9.6 0.0 0.00 0.00 0.00 36 1007.0
20260506231650 96 70 9.6 0.0 0.00 0.00 0.00 36 1007.0
20260506230649 99 41 6.1 7.0 0.00 0.00 0.00 30 1007.0
20260506225649 100 60 11.3 0.0 0.00 0.00 0.00 30 1007.0
20260506224648 100 60 11.3 0.0 0.00 0.00 0.00 30 1007.0
20260506223648 100 60 11.3 0.0 0.00 0.00 0.00 30 1007.0
20260506222647 100 60 11.3 0.0 0.00 0.00 0.00 30 1006.0
20260506221646 100 60 11.3 0.0 0.00 0.00 0.00 30 1006.0
20260506220646 100 60 11.3 0.0 0.00 0.00 0.00 30 1006.0
20260506215645 103 60 9.6 0.0 0.00 0.00 0.00 25 1006.0
20260506214645 103 60 9.6 0.0 0.00 0.00 0.00 25 1006.0
20260506213644 103 60 9.6 0.0 0.00 0.00 0.00 25 1006.0
20260506212643 103 60 9.6 0.0 0.00 0.00 0.00 25 1006.0
20260506211643 103 60 9.6 0.0 0.00 0.00 0.00 25 1006.0
20260506210031 103 50 3.5 0.0 0.00 0.00 0.00 25 1006.0
20260506205031 103 50 3.5 0.0 0.00 0.00 0.00 25 1006.0
20260506204030 103 50 3.5 0.0 0.00 0.00 0.00 25 1006.0
20260506203029 103 50 3.5 0.0 0.00 0.00 0.00 25 1006.0
20260506202020 100 11 3.5 6.1 0.00 0.00 0.00 27 1007.0
20260506201019 100 11 3.5 6.1 0.00 0.00 0.00 27 1007.0
20260506200018 101 30 3.5 0.0 0.00 0.00 0.00 27 1007.0
20260506195018 101 30 3.5 0.0 0.00 0.00 0.00 27 1007.0
20260506194017 101 30 3.5 0.0 0.00 0.00 0.00 27 1007.0
20260506193017 101 30 3.5 0.0 0.00 0.00 0.00 27 1007.0
20260506192016 101 30 3.5 0.0 0.00 0.00 0.00 27 1009.0
20260506191016 98 50 3.5 0.0 0.00 0.00 0.00 34 1009.0
20260506190015 98 50 3.5 0.0 0.00 0.00 0.00 34 1009.0
20260506185015 98 50 3.5 0.0 0.00 0.00 0.00 34 1009.0
20260506184014 98 50 3.5 0.0 0.00 0.00 0.00 34 1009.0
20260506183014 98 50 3.5 0.0 0.00 0.00 0.00 34 1009.0
20260506182013 98 50 3.5 0.0 0.00 0.00 0.00 34 1010.0
20260506181012 98 50 3.5 0.0 0.00 0.00 0.00 34 1010.0
20260506180011 94 20 3.5 0.0 0.00 0.00 0.00 43 1010.0
20260506175010 94 20 3.5 0.0 0.00 0.00 0.00 43 1010.0
20260506172923 94 20 3.5 0.0 0.00 0.00 0.00 43 1012.0
20260506171922 94 20 3.5 0.0 0.00 0.00 0.00 43 1012.0
20260506170921 95 95 0.9 1.7 0.00 0.00 0.00 47 1012.0
20260506165921 91 0 0.0 0.0 0.00 0.00 0.00 49 1012.0
20260506164920 91 0 0.0 0.0 0.00 0.00 0.00 49 1012.0
20260506163920 91 0 0.0 0.0 0.00 0.00 0.00 49 1013.0
20260506162919 91 0 0.0 0.0 0.00 0.00 0.00 49 1013.0
20260506161934 91 0 0.0 0.0 0.00 0.00 0.00 49 1013.0
20260506160934 87 0 0.0 0.0 0.00 0.00 0.00 55 1013.0
20260506155933 87 0 0.0 0.0 0.00 0.00 0.00 55 1013.0
20260506154932 87 0 0.0 0.0 0.00 0.00 0.00 55 1013.0
20260506153932 87 0 0.0 0.0 0.00 0.00 0.00 55 1013.0
20260506152931 87 0 0.0 0.0 0.00 0.00 0.00 55 1014.0
20260506151930 87 0 0.0 0.0 0.00 0.00 0.00 55 1014.0
20260506150930 83 0 0.0 0.0 0.00 0.00 0.00 74 1014.0
20260506145929 83 0 0.0 0.0 0.00 0.00 0.00 74 1014.0
20260506144929 83 0 0.0 0.0 0.00 0.00 0.00 74 1014.0
20260506143928 83 0 0.0 0.0 0.00 0.00 0.00 74 1014.0
20260506142928 83 0 0.0 0.0 0.00 0.00 0.00 74 1014.0
20260506141927 83 0 0.0 0.0 0.00 0.00 0.00 74 1014.0
20260506140927 80 0 0.0 0.0 0.00 0.00 0.00 78 1014.0
20260506135925 80 0 0.0 0.0 0.00 0.00 0.00 78 1014.0
20260506134924 80 0 0.0 0.0 0.00 0.00 0.00 78 1014.0
20260506133924 80 0 0.0 0.0 0.00 0.00 0.00 78 1014.0
20260506132923 80 0 0.0 0.0 0.00 0.00 0.00 78 1014.0
20260506131922 80 0 0.0 0.0 0.00 0.00 0.00 78 1014.0
20260506130921 80 0 0.0 0.0 0.00 0.00 0.00 78 1014.0
20260506125921 76 0 0.0 0.0 0.00 0.00 0.00 88 1014.0
20260506124920 76 0 0.0 0.0 0.00 0.00 0.00 88 1014.0
20260506123919 76 0 0.0 0.0 0.00 0.00 0.00 88 1014.0
20260506122919 76 0 0.0 0.0 0.00 0.00 0.00 88 1013.0
20260506121918 76 0 0.0 0.0 0.00 0.00 0.00 88 1013.0
20260506120918 76 0 0.0 0.0 0.00 0.00 0.00 88 1013.0
20260506115917 77 165 0.0 0.9 0.00 0.00 0.00 89 1013.0
20260506114916 70 165 0.0 0.9 0.00 0.00 0.00 89 1013.0
20260506113916 70 165 0.0 0.9 0.00 0.00 0.00 89 1013.0
20260506112915 71 84 0.9 0.9 0.00 0.00 0.00 89 1013.0
20260506111915 72 84 0.9 0.9 0.00 0.00 0.00 89 1013.0
20260506110914 73 84 0.9 0.9 0.00 0.00 0.00 89 1013.0
20260506105913 74 84 0.9 0.9 0.00 0.00 0.00 89 1013.0
20260506104913 75 84 0.9 0.9 0.00 0.00 0.00 89 1013.0
20260506103912 76 84 0.9 0.9 0.00 0.00 0.00 89 1013.0
20260506102912 71 52 0.9 0.9 0.00 0.00 0.00 88 1013.0
20260506101911 72 52 0.9 0.9 0.00 0.00 0.00 88 1013.0
20260506100910 73 52 0.9 0.9 0.00 0.00 0.00 88 1013.0